AirNav   Textron
 
 705 users online  

MO69 Baptist Medical Center Heliport
Kansas City, Missouri, USA

GOING TO KANSAS CITY?


FAA INFORMATION EFFECTIVE 14 SEPTEMBER 2017

Location

FAA Identifier: MO69
Lat/Long: 39-00-26.9400N / 094-34-41.5500W
39-00.449000N / 094-34.692500W
39.0074833 / -94.5782083
(estimated)
Elevation: 170 ft. / 52 m (estimated)
Variation: 05E (1985)
Time zone: UTC -5 (UTC -6 during Standard Time)
Zip code: 64131

Heliport Operations

Heliport use: Private use, MEDICAL USE.
Activation date: 08/1989
Control tower: no
ARTCC: KANSAS CITY CENTER
FSS: COLUMBIA FLIGHT SERVICE STATION
Attendance: CONTINUOUS
Wind indicator: lighted
Segmented circle: no
Lights: SS-SR

Heliport Communications

WX ASOS at MKC (7 nm N): PHONE 816-329-2843
WX ASOS at LXT (10 nm E): 124.175 (816-347-9807)
WX ASOS at OJC (12 nm SW): PHONE 913-780-6969
WX ASOS at IXD (18 nm SW): 135.325 (913-780-6987)
WX ASOS at MCI (19 nm N): PHONE 816-329-2808

Nearby radio navigation aids

VOR radial/distance  VOR name  Freq  Var
MCIr151/18.2KANSAS CITY VORTAC113.2505E
ANXr249/21.6NAPOLEON VORTAC114.0007E

Heliport Services

Runway Information

Helipad H1

Dimensions: 60 x 60 ft. / 18 x 18 m
Surface: concrete
Runway edge lights: PERIMETER LGTS.
Latitude: 39-00.449000N
Longitude: 094-34.692500W
Elevation: 170.0 ft.
Traffic pattern: leftleft

Heliport Ownership and Management from official FAA records

Ownership: Privately-owned
Owner: BAPTIST MEDICAL CENTER
6601 ROCKHILL ROAD
KANSAS CITY, MO 64131
Phone 816-276-7000
Manager: ED STANTON
6601 ROCKHILL ROAD
KANSAS CITY, MO 64131
Phone 816-276-7071

Additional Remarks

A52-H1 70' BLDG 155' SE; 200' TREES 50' SW; 50' PLINES 20' N.

Instrument Procedures

There are no published instrument procedures at MO69.

Some nearby airports with instrument procedures:

KMKC - Charles B Wheeler Downtown Airport (7 nm N)
KLXT - Lee's Summit Municipal Airport (10 nm E)
KOJC - Johnson County Executive Airport (12 nm SW)
3GV - East Kansas City Airport (17 nm E)
KIXD - New Century AirCenter Airport (18 nm SW)
KMCI - Kansas City International Airport (19 nm N)
 
Loc | Ops | Rwys | IFR | FBO | Links
Com | Nav | Svcs | Stats | Notes

Kansas City Aviation Department
 
Area around MO69 (Baptist Medical Center Heliport)
 
Road maps at: MapQuest Bing Google
 
Aerial photo
No photo
 
Sectional chart

 
Airport distance calculator
Flying to Baptist Medical Center Heliport? Find the distance to fly.

From to MO69

Sunrise and sunset
Times for 24-Sep-2017
 Local
(UTC-5)
 Zulu
(UTC)
Morning civil twilight06:4211:42
Sunrise07:0912:09
Sunset19:1200:12
Evening civil twilight19:3800:38

Current date and time
Zulu (UTC)  25-Sep-2017 03:25:43
Local (UTC-5)  24-Sep-2017 22:25:43
 
METAR
KMKC 
7nm N 
250254Z 15009KT 10SM CLR 28/20 A2993 RMK AO2 SLP126 T02780200 53012
KLXT 
10nm E 
250253Z AUTO 16008KT 10SM CLR 26/20 A2995 RMK AO2 SLP133 T02560200 53009
KOJC 
12nm SW 
250253Z AUTO 15005KT 10SM CLR 23/20 A2995 RMK AO2 SLP131 T02330200 53010
KIXD 
18nm SW 
250253Z 14007KT 10SM CLR 24/19 A2995 RMK AO2 SLP130 T02440194 52011
KMCI 
19nm N 
250253Z 16007KT 10SM CLR 24/19 A2994 RMK AO2 SLP128 T02390194 53010
TAF
KMKC 
7nm N 
241720Z 2418/2518 17008KT P6SM SCT050 FM251500 20009KT P6SM BKN200
KIXD 
18nm SW 
241720Z 2418/2518 16009KT P6SM SCT050 FM251500 18010KT P6SM BKN200
KMCI 
19nm N 
241720Z 2418/2518 17009KT P6SM SCT050 FM251500 19010KT P6SM BKN200
NOTAMs
Click for the latest NOTAMs
NOTAMs are issued by the DoD/FAA and will open in a separate window not controlled by AirNav.

 

 
 

Would you like to see your business listed on this page?

 If your business provides an interesting product or service to pilots, flight crews, aircraft, or users of the Baptist Medical Center Heliport, you should consider listing it here.  To start the listing process, click on the button below
 
Add a business
 

Other Pages about Baptist Medical Center Heliport

Update a link
 
Copyright © AirNav, LLC. All rights reserved. Privacy Policy  Contact